• In Belarus
  • List of Countries
  • For 7 days
  • Water Temperature
  • Satellite Maps
  • Weather Map
  • Weather Widgets
  • user-avatar
    Login

    Hourly Weather Gorodenka

    Today, 23 February, Friday

    Time Temperature Precipitation Wind Pressure Humidity
    00:00 -7°C° 0 mm 2 mps 739 mmHg 100%
    01:00 -8°C° 0 mm 2 mps 739 mmHg 100%
    02:00 -8°C° 0 mm 2 mps 739 mmHg 100%
    03:00 -8°C° 0 mm 2 mps 739 mmHg 100%
    04:00 -9°C° 0 mm 2 mps 739 mmHg 100%
    05:00 -9°C° 0 mm 2 mps 739 mmHg 100%
    06:00 -9°C° 0 mm 2 mps 738 mmHg 100%
    07:00 -9°C° 0 mm 2 mps 739 mmHg 100%
    08:00 -10°C° 0 mm 3 mps 739 mmHg 100%
    09:00 -9°C° 0 mm 3 mps 739 mmHg 100%
    10:00 -8°C° 0 mm 3 mps 739 mmHg 100%
    11:00 -7°C° 0 mm 3 mps 739 mmHg 100%
    12:00 -7°C° 0 mm 4 mps 739 mmHg 99%
    13:00 -7°C° 0 mm 4 mps 738 mmHg 99%
    14:00 -5°C° 0 mm 4 mps 738 mmHg 98%
    15:00 -5°C° 0.1 mm 4 mps 738 mmHg 100%
    16:00 -5°C° 0.4 mm 4 mps 738 mmHg 100%
    17:00 -5°C° 0.7 mm 3 mps 738 mmHg 100%
    18:00 -5°C° 0.7 mm 2 mps 737 mmHg 100%
    19:00 -3°C° 0.7 mm 1 mps 737 mmHg 100%
    20:00 -3°C° 0.9 mm 1 mps 737 mmHg 100%
    21:00 -3°C° 0.8 mm 1 mps 737 mmHg 100%
    22:00 -3°C° 0.4 mm 1 mps 737 mmHg 100%
    23:00 -3°C° 0.3 mm 1 mps 737 mmHg 100%

    Tomorrow, 24 February, Saturday

    Time Temperature Precipitation Wind Pressure Humidity
    00:00 -5°C° 0.3 mm 2 mps 737 mmHg 100%
    01:00 -5°C° 0.2 mm 2 mps 737 mmHg 100%
    02:00 -7°C° 0.1 mm 3 mps 737 mmHg 100%
    03:00 -7°C° 0.1 mm 3 mps 737 mmHg 100%
    04:00 -8°C° 0 mm 3 mps 737 mmHg 100%
    05:00 -9°C° 0 mm 3 mps 737 mmHg 100%
    06:00 -10°C° 0 mm 3 mps 737 mmHg 100%
    07:00 -12°C° 0 mm 4 mps 737 mmHg 100%
    08:00 -15°C° 0 mm 4 mps 737 mmHg 100%
    09:00 -17°C° 0 mm 5 mps 737 mmHg 100%
    10:00 -15°C° 0 mm 5 mps 738 mmHg 100%
    11:00 -14°C° 0 mm 5 mps 738 mmHg 99%
    12:00 -14°C° 0 mm 5 mps 738 mmHg 100%
    13:00 -14°C° 0 mm 5 mps 737 mmHg 99%
    14:00 -14°C° 0 mm 5 mps 737 mmHg 99%
    15:00 -15°C° 0 mm 6 mps 737 mmHg 99%
    16:00 -14°C° 0 mm 5 mps 737 mmHg 98%
    17:00 -15°C° 0 mm 5 mps 737 mmHg 99%
    18:00 -17°C° 0 mm 5 mps 737 mmHg 100%
    19:00 -18°C° 0 mm 5 mps 738 mmHg 100%
    20:00 -18°C° 0 mm 4 mps 738 mmHg 100%
    21:00 -18°C° 0 mm 4 mps 738 mmHg 100%
    22:00 -19°C° 0 mm 5 mps 738 mmHg 100%
    23:00 -19°C° 0 mm 5 mps 738 mmHg 100%

    Day after tomorrow, 25 February, Sunday

    Time Temperature Precipitation Wind Pressure Humidity
    00:00 -18°C° 0 mm 4 mps 739 mmHg 100%
    01:00 -16°C° 0.1 mm 3 mps 739 mmHg 100%
    02:00 -16°C° 0.2 mm 3 mps 739 mmHg 100%
    03:00 -16°C° 0.1 mm 3 mps 740 mmHg 100%
    04:00 -16°C° 0 mm 3 mps 740 mmHg 100%
    05:00 -16°C° 0 mm 3 mps 740 mmHg 100%
    06:00 -17°C° 0 mm 3 mps 740 mmHg 100%
    07:00 -18°C° 0 mm 3 mps 741 mmHg 100%
    08:00 -19°C° 0 mm 3 mps 741 mmHg 100%
    09:00 -19°C° 0 mm 3 mps 741 mmHg 100%
    10:00 -17°C° 0 mm 3 mps 742 mmHg 99%
    11:00 -16°C° 0 mm 3 mps 742 mmHg 98%
    12:00 -15°C° 0 mm 3 mps 742 mmHg 98%
    13:00 -15°C° 0 mm 4 mps 742 mmHg 97%
    14:00 -15°C° 0 mm 4 mps 742 mmHg 97%
    15:00 -13°C° 0 mm 3 mps 742 mmHg 95%
    16:00 -13°C° 0 mm 3 mps 742 mmHg 94%
    17:00 -13°C° 0 mm 2 mps 742 mmHg 97%
    18:00 -14°C° 0 mm 2 mps 742 mmHg 100%
    19:00 -15°C° 0 mm 2 mps 742 mmHg 100%
    20:00 -16°C° 0 mm 2 mps 742 mmHg 100%
    21:00 -17°C° 0 mm 2 mps 742 mmHg 100%
    22:00 -18°C° 0 mm 2 mps 742 mmHg 100%
    23:00 -18°C° 0 mm 2 mps 743 mmHg 100%

    26 February, Monday

    Time Temperature Precipitation Wind Pressure Humidity
    00:00 -18°C° 0 mm 2 mps 743 mmHg 100%
    01:00 -21°C° 0 mm 3 mps 742 mmHg 100%
    02:00 -22°C° 0 mm 3 mps 742 mmHg 100%
    03:00 -20°C° 0 mm 2 mps 742 mmHg 100%
    04:00 -21°C° 0 mm 2 mps 742 mmHg 100%
    05:00 -21°C° 0 mm 2 mps 742 mmHg 100%
    06:00 -23°C° 0 mm 2 mps 742 mmHg 100%
    07:00 -23°C° 0 mm 2 mps 742 mmHg 100%
    08:00 -21°C° 0 mm 1 mps 742 mmHg 100%
    09:00 -21°C° 0 mm 1 mps 742 mmHg 100%
    10:00 -20°C° 0 mm 0 mps 742 mmHg 100%
    11:00 -18°C° 0 mm 0 mps 742 mmHg 100%
    12:00 -16°C° 0 mm 0 mps 742 mmHg 100%
    13:00 -14°C° 0 mm 1 mps 742 mmHg 99%
    14:00 -15°C° 0 mm 2 mps 742 mmHg 99%

    27 February, Tuesday

    Time Temperature Precipitation Wind Pressure Humidity

    28 February, Wednesday

    Time Temperature Precipitation Wind Pressure Humidity
    Show more